Fairmont, MN

8:33 PM CDT on April 19, 2018 (GMT -0500)
Fairmont Municipal

Weather History for KFRM - November, 2012

Change the Weather History Date:

Thursday, November 8, 2012

  Actual Average Record
Temperature  
Mean Temperature 46 °F -  
Max Temperature 60 °F 44 °F 80 °F (2006)
Min Temperature 33 °F 26 °F 5 °F (1991)
Degree Days  
Heating Degree Days 18    
Moisture  
Dew Point 33 °F    
Average Humidity 67    
Maximum Humidity 87    
Minimum Humidity 36    
Precipitation  
Precipitation 0.00 in - - ()
Sea Level Pressure  
Sea Level Pressure 29.94 in    
Wind  
Wind Speed 12 mph (South)    
Max Wind Speed 20 mph    
Max Gust Speed 25 mph    
Visibility 10 miles    
Events      
Averages and records for this station are not official NWS values.
T = Trace of Precipitation, MM = Missing Value Source: NWS Daily Summary

Daily Weather History Graph

Daily Weather History Graph

Search for Another Location

Airport or City:

Astronomy

Nov. 08, 2012 Rise Set
Actual Time 7:03 AM CST 4:59 PM CST
Civil Twilight 6:32 AM CST 5:29 PM CST
Nautical Twilight 5:58 AM CST 6:03 PM CST
Astronomical Twilight 5:24 AM CST 6:37 PM CST
Moon 12:48 AM CST (11/8) 1:50 PM CST (11/8)
Length of Visible Light 10h 56m
Length of Day
9h 55m
Waning Crescent, 32% of the Moon is Illuminated
Nov 8
Waning Crescent
Nov 13
New
Nov 20
First Quarter
Nov 28
Full
Dec 6
Last Quarter

Hourly Weather History & Observations

Time (CST) Temp. Windchill Dew Point Humidity Pressure Visibility Wind Dir Wind Speed Gust Speed Precip Events Conditions
12:15 AM 33.8 °F 24.3 °F 28.4 °F 81% 30.03 in 10.0 mi SSE 13.8 mph - N/A   Clear
12:35 AM 33.8 °F 24.8 °F 28.4 °F 81% 30.02 in 10.0 mi SSE 12.7 mph - N/A   Clear
12:55 AM 33.8 °F 24.3 °F 28.4 °F 81% 30.01 in 10.0 mi SSE 13.8 mph - N/A   Clear
1:15 AM 33.8 °F 23.9 °F 28.4 °F 81% 30.00 in 10.0 mi SSE 15.0 mph - N/A   Clear
1:35 AM 33.8 °F 23.9 °F 28.4 °F 81% 30.00 in 10.0 mi SSE 15.0 mph - N/A   Clear
1:55 AM 33.8 °F 23.9 °F 28.4 °F 81% 29.99 in 10.0 mi SSE 15.0 mph - N/A   Clear
2:15 AM 33.8 °F 23.9 °F 28.4 °F 81% 29.99 in 10.0 mi South 15.0 mph - N/A   Clear
2:35 AM 33.8 °F 24.3 °F 28.4 °F 81% 29.99 in 10.0 mi SSE 13.8 mph - N/A   Clear
2:55 AM 35.6 °F 25.9 °F 28.4 °F 75% 29.97 in 10.0 mi SSE 16.1 mph - N/A   Clear
3:15 AM 33.8 °F 23.9 °F 28.4 °F 81% 29.97 in 10.0 mi SSE 15.0 mph - N/A   Clear
3:35 AM 33.8 °F 24.3 °F 28.4 °F 81% 29.96 in 10.0 mi SSE 13.8 mph - N/A   Clear
3:55 AM 33.8 °F 24.3 °F 28.4 °F 81% 29.96 in 10.0 mi South 13.8 mph - N/A   Clear
4:15 AM 33.8 °F 24.3 °F 28.4 °F 81% 29.95 in 10.0 mi SSE 13.8 mph - N/A   Clear
4:35 AM 33.8 °F 24.3 °F 28.4 °F 81% 29.95 in 10.0 mi SSE 13.8 mph - N/A   Clear
4:55 AM 33.8 °F 24.3 °F 28.4 °F 81% 29.94 in 10.0 mi SSE 13.8 mph - N/A   Clear
5:15 AM 33.8 °F 23.9 °F 30.2 °F 87% 29.94 in 10.0 mi SSE 15.0 mph - N/A   Clear
5:35 AM 33.8 °F 24.3 °F 28.4 °F 81% 29.93 in 10.0 mi SSE 13.8 mph - N/A   Clear
5:55 AM 33.8 °F 23.9 °F 30.2 °F 87% 29.92 in 10.0 mi SSE 15.0 mph - N/A   Clear
6:15 AM 35.6 °F 26.2 °F 30.2 °F 81% 29.92 in 10.0 mi SSE 15.0 mph - N/A   Clear
6:55 AM 35.6 °F 26.2 °F 30.2 °F 81% 29.92 in 10.0 mi SSE 15.0 mph 20.7 mph N/A   Clear
7:15 AM 35.6 °F 25.2 °F 30.2 °F 81% 29.91 in 10.0 mi South 18.4 mph - N/A   Clear
7:35 AM 35.6 °F 26.2 °F 30.2 °F 81% 29.92 in 10.0 mi South 15.0 mph - N/A   Clear
7:55 AM 35.6 °F 25.5 °F 30.2 °F 81% 29.93 in 10.0 mi South 17.3 mph - N/A   Clear
8:15 AM 37.4 °F 28.2 °F 30.2 °F 75% 29.93 in 10.0 mi South 16.1 mph - N/A   Clear
8:35 AM 39.2 °F 30.5 °F 32.0 °F 75% 29.93 in 10.0 mi South 16.1 mph - N/A   Clear
8:55 AM 39.2 °F 29.8 °F 32.0 °F 75% 29.94 in 10.0 mi South 18.4 mph - N/A   Clear
9:15 AM 41.0 °F 32.8 °F 32.0 °F 70% 29.94 in 10.0 mi South 16.1 mph - N/A   Clear
9:35 AM 42.8 °F 34.8 °F 33.8 °F 70% 29.94 in 10.0 mi South 17.3 mph - N/A   Clear
9:55 AM 44.6 °F 37.4 °F 33.8 °F 66% 29.95 in 10.0 mi South 16.1 mph - N/A   Clear
10:15 AM 46.4 °F 39.2 °F 35.6 °F 66% 29.94 in 10.0 mi South 18.4 mph 21.9 mph N/A   Clear
10:35 AM 46.4 °F 39.2 °F 35.6 °F 66% 29.94 in 10.0 mi South 18.4 mph - N/A   Clear
10:55 AM 48.2 °F - 35.6 °F 62% 29.94 in 10.0 mi South 19.6 mph 25.3 mph N/A   Clear
11:15 AM 50.0 °F - 35.6 °F 58% 29.93 in 10.0 mi South 18.4 mph 24.2 mph N/A   Clear
11:35 AM 51.8 °F - 35.6 °F 54% 29.93 in 10.0 mi South 15.0 mph 20.7 mph N/A   Clear
11:55 AM 53.6 °F - 35.6 °F 51% 29.92 in 10.0 mi SSW 16.1 mph 19.6 mph N/A   Clear
12:15 PM 53.6 °F - 35.6 °F 51% 29.92 in 10.0 mi SSW 16.1 mph - N/A   Clear
12:35 PM 55.4 °F - 35.6 °F 47% 29.92 in 10.0 mi SW 12.7 mph - N/A   Clear
12:55 PM 55.4 °F - 35.6 °F 47% 29.91 in 10.0 mi SW 10.4 mph 16.1 mph N/A   Clear
1:15 PM 57.2 °F - 35.6 °F 44% 29.90 in 10.0 mi SSW 11.5 mph - N/A   Clear
1:35 PM 57.2 °F - 35.6 °F 44% 29.90 in 7.0 mi SW 11.5 mph - N/A   Clear
1:55 PM 59.0 °F - 35.6 °F 42% 29.90 in 10.0 mi SW 10.4 mph - N/A   Clear
2:15 PM 59.0 °F - 35.6 °F 42% 29.90 in 10.0 mi WSW 10.4 mph - N/A   Clear
2:35 PM 60.8 °F - 35.6 °F 39% 29.90 in 9.0 mi SW 5.8 mph - N/A   Clear
2:55 PM 60.8 °F - 33.8 °F 36% 29.90 in 10.0 mi WSW 9.2 mph - N/A   Clear
3:15 PM 60.8 °F - 33.8 °F 36% 29.90 in 10.0 mi WSW 4.6 mph - N/A   Clear
3:35 PM 60.8 °F - 33.8 °F 36% 29.90 in 10.0 mi WSW 5.8 mph - N/A   Clear
3:55 PM 60.8 °F - 33.8 °F 36% 29.91 in 10.0 mi Calm Calm - N/A   Clear
4:15 PM 59.0 °F - 35.6 °F 42% 29.91 in 10.0 mi Calm Calm - N/A   Clear
4:35 PM 55.4 °F - 37.4 °F 51% 29.92 in 10.0 mi Calm Calm - N/A   Clear
4:55 PM 53.6 °F - 37.4 °F 54% 29.92 in 10.0 mi Calm Calm - N/A   Clear
5:15 PM 50.0 °F - 37.4 °F 62% 29.92 in 10.0 mi Calm Calm - N/A   Clear
5:35 PM 53.6 °F - 35.6 °F 51% 29.93 in 10.0 mi Calm Calm - N/A   Clear
5:55 PM 51.8 °F - 35.6 °F 54% 29.93 in 10.0 mi Calm Calm - N/A   Clear
6:15 PM 51.8 °F - 35.6 °F 54% 29.93 in 10.0 mi Calm Calm - N/A   Clear
6:35 PM 51.8 °F - 35.6 °F 54% 29.93 in 10.0 mi Calm Calm - N/A   Clear
6:55 PM 50.0 °F - 35.6 °F 58% 29.94 in 10.0 mi North 8.1 mph - N/A   Clear
7:15 PM 46.4 °F 42.9 °F 35.6 °F 66% 29.94 in 10.0 mi North 6.9 mph - N/A   Clear
7:35 PM 46.4 °F 42.9 °F 35.6 °F 66% 29.94 in 10.0 mi NNE 6.9 mph - N/A   Clear
7:55 PM 46.4 °F 43.5 °F 35.6 °F 66% 29.94 in 10.0 mi NNE 5.8 mph - N/A   Clear
8:15 PM 46.4 °F 43.5 °F 35.6 °F 66% 29.94 in 10.0 mi NNE 5.8 mph - N/A   Clear
8:35 PM 42.8 °F - 33.8 °F 70% 29.94 in 10.0 mi Calm Calm - N/A   Clear
8:55 PM 42.8 °F - 33.8 °F 70% 29.95 in 10.0 mi Calm Calm - N/A   Clear
9:15 PM 41.0 °F - 33.8 °F 76% 29.94 in 10.0 mi Calm Calm - N/A   Clear
9:35 PM 39.2 °F - 32.0 °F 75% 29.94 in 10.0 mi Calm Calm - N/A   Clear
9:55 PM 39.2 °F - 33.8 °F 81% 29.95 in 10.0 mi Calm Calm - N/A   Clear
10:15 PM 37.4 °F - 32.0 °F 81% 29.95 in 10.0 mi Calm Calm - N/A   Clear
10:35 PM 37.4 °F - 32.0 °F 81% 29.95 in 10.0 mi Calm Calm - N/A   Clear
10:55 PM 35.6 °F - 32.0 °F 87% 29.95 in 10.0 mi Calm Calm - N/A   Clear
11:15 PM 35.6 °F - 32.0 °F 87% 29.95 in 10.0 mi Calm Calm - N/A   Clear
11:35 PM 35.6 °F - 32.0 °F 87% 29.94 in 10.0 mi Calm Calm - N/A   Clear
11:55 PM 35.6 °F - 32.0 °F 87% 29.95 in 10.0 mi Calm Calm - N/A   Clear